baydin.com alexa rank chart, baydin.com alexa rank daily changes

baydin.com alexa rank chart, baydin.com alexa rank daily changes

baydin.com
Actual rank:
11 446

RANK HISTORY

Date Rank Diff
2017/04/23 11 446 +16
2017/04/22 11 430 +39
2017/04/21 11 391 -221
2017/04/20 11 612 -152
2017/04/19 11 764 -41
2017/04/18 11 805 +235
2017/04/17 11 570 +215
2017/04/16 11 355 +75
2017/04/15 11 280 +92
2017/04/14 11 188 -54
2017/04/13 11 242 -165
2017/04/12 11 407 -47
2017/04/11 11 454 +73
2017/04/10 11 381 +227
2017/04/09 11 154 +11
2017/04/08 11 143 -8
2017/04/07 11 151 -108
2017/04/06 11 259 -172
2017/04/05 11 431 -84
2017/04/04 11 515 +130
2017/04/03 11 385 +178
2017/04/02 11 207 +141
2017/04/01 11 066 -37
2017/03/31 11 103 -33
2017/03/30 11 136 -33
2017/03/29 11 169 +36
2017/03/28 11 133 +36
2017/03/27 11 097 +35
2017/03/26 11 062 +60
2017/03/25 11 002 +6
2017/03/24 10 996 +4
2017/03/23 10 992 +75
2017/03/22 10 917 -46
2017/03/21 10 963 +64
2017/03/20 10 899 +13
2017/03/19 10 886 +19
2017/03/18 10 867 +84
2017/03/17 10 783 +37
2017/03/16 10 746 +90
2017/03/15 10 656 +26
2017/03/14 10 630 +19
2017/03/13 10 611 +31
2017/03/12 10 580 +50
2017/03/11 10 530 +79
2017/03/10 10 451 -21
2017/03/09 10 472 +160
2017/03/08 10 312 +135
2017/03/07 10 177 +54
2017/03/06 10 123 -104
2017/03/01 10 227 -235
2017/02/28 10 462 +166
2017/02/27 10 296 +82
2017/02/26 10 214 -14
2017/02/25 10 228 +36
2017/02/24 10 192 -145
2017/02/23 10 337 -228
2017/02/22 10 565

WIDGET FOR YOUR SITE

DOMAINS WITH THE NEAREST RANK

Domain Rank
yourtemplatefinder.com 11 441
virtualdj.com 11 442
mejorenvo.com 11 443
myhentaicomics.com 11 444
gnula.se 11 445
baydin.com 11 446
mijnwoordenboek.nl 11 447
showjet.ru 11 448
rtp.pt 11 449
nykaa.com 11 450
newindianexpress.com 11 451

DOMAINS WITH THE NEAREST RANK BY TLD .com

Domain Rank
online-video-cutter.com 11 440
yourtemplatefinder.com 11 441
virtualdj.com 11 442
mejorenvo.com 11 443
myhentaicomics.com 11 444
baydin.com 11 446
nykaa.com 11 450
newindianexpress.com 11 451
zealer.com 11 452
geekandsundry.com 11 454
pngimg.com 11 456